• In Belarus
  • List of Countries
  • For 7 days
  • Water Temperature
  • Weather Map
  • Weather Widgets
  • user-avatar
    Login

    Hourly Weather Karadah

    Today, 20 November, Wednesday

    Time Temperature Precipitation Wind Pressure Humidity
    00:00 +8°C° 0 mm 1 mps 704 mmHg 41%
    01:00 +8°C° 0 mm 1 mps 703 mmHg 40%
    02:00 +7°C° 0 mm 1 mps 703 mmHg 39%
    03:00 +7°C° 0 mm 1 mps 703 mmHg 37%
    04:00 +7°C° 0 mm 1 mps 703 mmHg 38%
    05:00 +7°C° 0 mm 1 mps 703 mmHg 38%
    06:00 +5°C° 0 mm 0 mps 703 mmHg 38%
    07:00 +8°C° 0 mm 1 mps 703 mmHg 37%
    08:00 +9°C° 0 mm 1 mps 704 mmHg 35%
    09:00 +10°C° 0 mm 1 mps 704 mmHg 34%
    10:00 +10°C° 0 mm 1 mps 704 mmHg 35%
    11:00 +11°C° 0 mm 1 mps 704 mmHg 37%
    12:00 +12°C° 0 mm 2 mps 704 mmHg 38%
    13:00 +10°C° 0 mm 2 mps 703 mmHg 46%
    14:00 +9°C° 0 mm 2 mps 703 mmHg 55%
    15:00 +8°C° 0 mm 2 mps 703 mmHg 63%
    16:00 +7°C° 0 mm 2 mps 703 mmHg 72%
    17:00 +7°C° 0 mm 1 mps 703 mmHg 80%
    18:00 +5°C° 0 mm 1 mps 703 mmHg 89%
    19:00 +5°C° 0 mm 1 mps 703 mmHg 88%
    20:00 +5°C° 0 mm 1 mps 704 mmHg 88%
    21:00 +5°C° 0 mm 1 mps 704 mmHg 88%
    22:00 +5°C° 0 mm 1 mps 704 mmHg 89%
    23:00 +5°C° 0 mm 1 mps 704 mmHg 89%

    Tomorrow, 21 November, Thursday

    Time Temperature Precipitation Wind Pressure Humidity
    00:00 +5°C° 0 mm 1 mps 704 mmHg 89%
    01:00 +4°C° 0.1 mm 1 mps 704 mmHg 90%
    02:00 +4°C° 0.1 mm 1 mps 704 mmHg 91%
    03:00 +4°C° 0.1 mm 1 mps 704 mmHg 92%
    04:00 +4°C° 0.2 mm 1 mps 704 mmHg 93%
    05:00 +3°C° 0.2 mm 1 mps 704 mmHg 93%
    06:00 +3°C° 0.2 mm 1 mps 704 mmHg 93%
    07:00 +3°C° 0.2 mm 1 mps 704 mmHg 91%
    08:00 +3°C° 0.2 mm 1 mps 704 mmHg 89%
    09:00 +2°C° 0.2 mm 2 mps 705 mmHg 87%
    10:00 +3°C° 0.2 mm 2 mps 705 mmHg 86%
    11:00 +3°C° 0.2 mm 2 mps 704 mmHg 84%
    12:00 +4°C° 0.2 mm 2 mps 704 mmHg 82%
    13:00 +3°C° 0.2 mm 2 mps 704 mmHg 84%
    14:00 +3°C° 0.2 mm 2 mps 705 mmHg 85%
    15:00 +3°C° 0.2 mm 2 mps 705 mmHg 87%
    16:00 +3°C° 0.3 mm 2 mps 705 mmHg 89%
    17:00 +2°C° 0.3 mm 2 mps 705 mmHg 91%
    18:00 +3°C° 0.3 mm 1 mps 705 mmHg 94%
    19:00 +2°C° 0.3 mm 1 mps 706 mmHg 94%
    20:00 +2°C° 0.3 mm 1 mps 706 mmHg 94%
    21:00 +2°C° 0.3 mm 1 mps 707 mmHg 94%
    22:00 +2°C° 0.4 mm 1 mps 707 mmHg 94%
    23:00 +2°C° 0.4 mm 1 mps 707 mmHg 95%

    Day after tomorrow, 22 November, Friday

    Time Temperature Precipitation Wind Pressure Humidity
    00:00 +2°C° 0.4 mm 1 mps 707 mmHg 95%
    01:00 +2°C° 0.3 mm 1 mps 707 mmHg 95%
    02:00 +2°C° 0.3 mm 1 mps 707 mmHg 96%
    03:00 +1°C° 0.3 mm 1 mps 707 mmHg 96%
    04:00 +1°C° 0.2 mm 1 mps 707 mmHg 96%
    05:00 +1°C° 0.2 mm 1 mps 708 mmHg 96%
    06:00 +1°C° 0.2 mm 1 mps 708 mmHg 96%
    07:00 +1°C° 0.1 mm 1 mps 708 mmHg 94%
    08:00 +2°C° 0.1 mm 1 mps 709 mmHg 92%
    09:00 +2°C° 0.1 mm 1 mps 709 mmHg 89%
    10:00 +2°C° 0.1 mm 1 mps 709 mmHg 86%
    11:00 +2°C° 0.1 mm 2 mps 709 mmHg 84%
    12:00 +2°C° 0.1 mm 2 mps 709 mmHg 81%
    13:00 +2°C° 0.1 mm 2 mps 709 mmHg 82%
    14:00 +2°C° 0.1 mm 2 mps 708 mmHg 84%
    15:00 +2°C° 0.1 mm 2 mps 708 mmHg 85%
    16:00 +2°C° 0 mm 1 mps 708 mmHg 88%
    17:00 +2°C° 0 mm 1 mps 708 mmHg 91%
    18:00 +1°C° 0 mm 1 mps 708 mmHg 94%
    19:00 +1°C° 0 mm 1 mps 708 mmHg 93%
    20:00 0°C° 0 mm 1 mps 708 mmHg 93%
    21:00 0°C° 0 mm 1 mps 709 mmHg 92%
    22:00 0°C° 0 mm 1 mps 708 mmHg 89%
    23:00 -1°C° 0 mm 1 mps 708 mmHg 86%

    23 November, Saturday

    Time Temperature Precipitation Wind Pressure Humidity
    00:00 -1°C° 0 mm 1 mps 708 mmHg 84%
    01:00 -1°C° 0 mm 1 mps 708 mmHg 81%
    02:00 -1°C° 0 mm 1 mps 708 mmHg 79%
    03:00 -1°C° 0 mm 1 mps 707 mmHg 76%
    04:00 -1°C° 0 mm 1 mps 707 mmHg 73%
    05:00 -1°C° 0 mm 1 mps 707 mmHg 71%
    06:00 -1°C° 0 mm 1 mps 707 mmHg 68%
    07:00 +1°C° 0 mm 1 mps 707 mmHg 65%
    08:00 +2°C° 0 mm 1 mps 708 mmHg 63%
    09:00 +3°C° 0 mm 1 mps 708 mmHg 60%
    10:00 +4°C° 0 mm 1 mps 708 mmHg 59%
    11:00 +5°C° 0 mm 1 mps 708 mmHg 58%
    12:00 +5°C° 0 mm 1 mps 708 mmHg 57%
    13:00 +5°C° 0 mm 1 mps 707 mmHg 61%
    14:00 +5°C° 0 mm 1 mps 707 mmHg 65%
    15:00 +5°C° 0 mm 1 mps 707 mmHg 69%
    16:00 +4°C° 0 mm 1 mps 707 mmHg 71%
    17:00 +2°C° 0 mm 1 mps 706 mmHg 74%
    18:00 +1°C° 0 mm 1 mps 706 mmHg 76%
    19:00 +1°C° 0 mm 1 mps 706 mmHg 73%
    20:00 +1°C° 0 mm 1 mps 706 mmHg 70%
    21:00 +1°C° 0 mm 1 mps 706 mmHg 67%
    22:00 +1°C° 0 mm 1 mps 706 mmHg 65%
    23:00 +1°C° 0 mm 1 mps 706 mmHg 63%

    24 November, Sunday

    Time Temperature Precipitation Wind Pressure Humidity
    00:00 +1°C° 0 mm 1 mps 706 mmHg 62%
    01:00 +1°C° 0 mm 1 mps 706 mmHg 61%
    02:00 +1°C° 0 mm 1 mps 706 mmHg 60%
    03:00 +1°C° 0 mm 1 mps 705 mmHg 59%
    04:00 +1°C° 0 mm 1 mps 705 mmHg 60%
    05:00 0°C° 0 mm 1 mps 705 mmHg 61%
    06:00 0°C° 0 mm 1 mps 705 mmHg 62%
    07:00 +1°C° 0 mm 1 mps 705 mmHg 60%
    08:00 +2°C° 0 mm 1 mps 706 mmHg 59%
    09:00 +3°C° 0 mm 1 mps 706 mmHg 57%
    10:00 +4°C° 0 mm 1 mps 705 mmHg 57%
    11:00 +5°C° 0 mm 1 mps 705 mmHg 56%
    12:00 +6°C° 0 mm 1 mps 705 mmHg 56%
    13:00 +6°C° 0 mm 1 mps 705 mmHg 60%
    14:00 +6°C° 0 mm 1 mps 705 mmHg 63%
    15:00 +5°C° 0 mm 1 mps 705 mmHg 67%
    16:00 +4°C° 0 mm 1 mps 705 mmHg 69%
    17:00 +3°C° 0 mm 1 mps 705 mmHg 71%
    18:00 +2°C° 0 mm 1 mps 704 mmHg 73%
    19:00 +2°C° 0 mm 1 mps 704 mmHg 72%
    20:00 +2°C° 0 mm 1 mps 704 mmHg 71%
    21:00 +2°C° 0 mm 1 mps 704 mmHg 70%
    22:00 +2°C° 0 mm 1 mps 704 mmHg 69%
    23:00 +2°C° 0 mm 1 mps 704 mmHg 69%

    25 November, Monday

    Time Temperature Precipitation Wind Pressure Humidity
    00:00 +2°C° 0 mm 1 mps 704 mmHg 68%
    01:00 +2°C° 0 mm 1 mps 704 mmHg 66%
    02:00 +2°C° 0 mm 1 mps 703 mmHg 64%
    03:00 +1°C° 0 mm 1 mps 703 mmHg 62%
    04:00 +1°C° 0 mm 1 mps 703 mmHg 61%
    05:00 +1°C° 0 mm 1 mps 703 mmHg 59%
    06:00 +1°C° 0 mm 1 mps 703 mmHg 57%
    07:00 +2°C° 0 mm 1 mps 703 mmHg 55%
    08:00 +4°C° 0 mm 1 mps 703 mmHg 53%
    09:00 +5°C° 0 mm 1 mps 704 mmHg 51%
    10:00 +6°C° 0 mm 1 mps 703 mmHg 49%
    11:00 +7°C° 0 mm 1 mps 703 mmHg 48%
    12:00 +7°C° 0 mm 1 mps 703 mmHg 47%
    13:00 +7°C° 0 mm 1 mps 703 mmHg 50%
    14:00 +7°C° 0 mm 1 mps 703 mmHg 54%
    15:00 +7°C° 0 mm 1 mps 703 mmHg 58%
    16:00 +6°C° 0 mm 1 mps 703 mmHg 60%
    17:00 +5°C° 0 mm 1 mps 703 mmHg 62%
    18:00 +3°C° 0 mm 1 mps 703 mmHg 64%
    19:00 +3°C° 0 mm 1 mps 703 mmHg 62%
    20:00 +3°C° 0 mm 1 mps 703 mmHg 60%
    21:00 +3°C° 0 mm 1 mps 703 mmHg 58%
    22:00 +3°C° 0 mm 1 mps 702 mmHg 56%
    23:00 +2°C° 0 mm 2 mps 702 mmHg 54%
    Show more